Location: Ciserano
(45.5833°N, 9.6000°E)
Time: 01:19:13
(UTC+00:00)

SJ 16-02 - Pass Details

Date: 16 April 2021
Orbit: 605 x 617 km, 75.0° (Epoch: 10 May)

Event Time Altitude Azimuth Distance (km) Brightness Sun altitude
Exits shadow 02:26:00 42° 279° (W) 882 1.8 -20.6°
Maximum altitude 02:26:24 43° 295° (WNW) 866 1.9 -20.5°
Drops below altitude 10° 02:30:39 10° 8° (N) 1,986 4.6 -19.9°
Sets 02:33:00 0° 15° (NNE) 2,898 5.7 -19.6°
